RH
15 16 16 15 15 16 18 18 35 32 24 22 19 18 17 22 43 38 39 39 34 38 45 47 43 26 10 13 14 18 30 20 19 20 24 22 22 27 26 25 26 26 28 26
10 10 12 13 11 11 13 16 34 50 36 29 25 21 19 17 37 44 32 49 39 38 47 48 46 22 12 19 17 21 29 23 23 29 28 24 23 21 22 24 26 26 28 26
10 8 9 9 10 10 10 11 18 49 49 34 32 27 24 19 24 56 38 29 36 35 34 33 40 15 16 20 21 31 28 26 26 27 32 29 21 18 20 22 23 24 24 23
9 9 10 10 10 9 9 9 10 15 39 41 37 35 28 24 19 33 32 12 24 34 22 18 14 15 14 23 30 37 29 30 29 27 21 21 19 18 18 21 21 22 23 23
16 9 9 11 9 10 11 10 10 11 18 26 31 40 40 31 25 19 23 12 11 12 8 9 12 12 23 26 34 39 39 35 30 25 18 14 16 18 19 19 20 22 22 22
12 12 13 19 16 17 12 11 9 9 11 20 54 54 48 44 30 23 18 14 9 9 8 8 12 22 24 36 39 35 50 37 34 33 24 23 17 13 14 16 17 18 19 22
16 26 26 19 20 18 16 13 10 9 10 16 35 48 56 50 34 29 18 15 10 9 10 9 12 18 29 34 34 35 63 65 54 36 30 34 34 23 15 12 13 15 17 19
15 16 26 25 23 20 15 14 11 13 11 11 11 30 39 48 30 30 23 16 12 10 12 9 9 12 31 38 44 46 61 53 38 30 27 29 30 25 20 16 13 13 16 18
26 20 31 24 21 16 16 18 21 15 12 13 12 13 24 38 32 35 34 24 16 11 11 6 5 12 28 41 45 49 52 40 38 33 28 26 24 23 22 18 20 24 26 21
20 21 31 32 23 18 20 20 15 21 25 30 23 13 16 33 40 42 32 34 22 12 13 9 7 9 20 17 17 27 37 51 38 32 30 31 30 27 26 26 26 27 30 31
23 37 32 33 21 24 23 18 21 28 37 35 29 18 11 12 35 47 42 41 30 16 16 15 13 10 7 6 19 26 33 41 33 33 36 34 36 37 39 37 34 32 33 41
24 32 30 40 37 26 23 21 22 23 37 41 27 20 12 11 16 41 46 39 36 26 14 19 15 15 17 16 17 16 20 25 26 28 32 35 42 44 44 44 39 38 33 49
22 24 31 35 31 23 19 21 23 26 37 39 36 31 36 31 13 23 43 48 44 39 25 14 14 15 20 21 20 20 17 16 21 28 34 38 42 48 45 39 34 31 28 71
21 37 31 33 49 44 25 21 25 25 32 49 64 39 35 29 24 13 20 42 48 46 37 31 29 24 30 40 38 24 26 24 23 30 38 40 44 42 37 35 35 33 29 27
21 24 33 33 33 30 25 22 24 26 34 39 66 41 30 27 29 26 16 16 34 50 47 41 36 32 36 41 39 51 100 69 30 26 27 29 29 31 33 36 37 29 25 23
23 20 29 28 33 34 31 24 24 29 32 40 59 53 34 25 28 29 30 16 14 25 45 50 42 38 38 38 38 34 29 65 88 59 37 28 27 28 29 26 25 28 32 34
27 23 21 32 36 36 31 26 27 28 30 38 61 72 54 30 24 22 24 20 15 14 16 28 44 50 46 42 39 37 35 34 34 34 35 35 34 35 35 35 34 32 31 30
28 26 24 25 24 30 32 30 28 26 28 31 44 63 69 35 25 24 26 21 19 19 17 13 14 20 30 42 46 44 43 42 41 41 40 41 42 42 42 40 43 46 47 42
22 31 25 22 19 33 30 28 28 27 26 26 34 45 68 49 30 23 23 29 28 21 22 24 24 23 18 17 19 26 31 38 40 42 42 43 45 40 28 22 21 19 15 14
15 27 28 23 18 26 32 29 28 26 27 27 33 44 54 58 35 36 23 22 23 25 29 33 27 25 27 25 23 21 16 15 16 16 14 15 17 19 20 19 18 18 18 20
14 15 26 25 21 21 25 24 26 27 28 27 32 37 43 55 41 44 23 20 24 25 25 31 33 32 28 22 20 20 21 22 21 21 23 24 25 24 23 21 21 23 26 29
13 13 18 27 22 18 21 22 27 25 26 26 28 34 38 47 52 36 34 25 25 24 22 26 30 34 37 31 28 25 25 26 27 28 26 26 25 25 25 23 21 25 25 26
18 12 12 15 23 21 17 20 24 24 24 25 26 30 29 31 39 39 36 30 22 24 24 22 23 28 30 32 34 33 29 27 28 27 26 25 26 21 18 17 15 15 22 18
21 14 11 12 17 21 20 19 23 25 22 24 24 27 26 27 31 34 27 27 24 18 21 24 25 21 21 29 32 31 32 32 28 23 22 20 20 21 20 20 16 13 14 15
22 20 15 12 13 14 22 21 21 22 22 25 27 25 28 26 29 35 33 27 21 23 21 19 21 24 24 17 18 24 31 32 30 29 25 22 20 18 14 14 14 13 13 14
17 22 21 17 13 12 14 23 20 20 23 24 30 32 29 29 32 33 34 39 34 26 24 23 19 19 22 27 25 22 20 22 27 29 28 26 20 15 14 12 12 11 13 14
Wind_Speed
43 44 45 42 45 43 38 37 36 36 34 27 21 19 18 13 10 6 5 11 17 20 19 15 13 15 17 22 23 24 21 21 19 18 17 15 14 15 16 16 14 15 15 15
43 46 41 41 44 45 43 45 43 40 36 32 26 20 20 17 11 11 5 9 15 20 18 17 16 18 18 24 23 25 22 21 20 18 16 14 12 12 13 14 13 13 12 12
46 35 38 41 43 43 44 47 50 47 39 36 29 24 23 20 14 13 10 12 15 17 19 16 18 22 25 27 24 23 22 20 17 15 14 13 11 11 11 11 10 9 9 9
45 39 42 42 42 41 40 43 42 46 43 38 34 32 27 22 21 16 11 14 17 18 21 20 21 24 28 27 27 23 21 18 17 14 12 11 9 7 8 8 8 8 7 8
50 45 42 42 39 36 38 32 34 40 46 44 36 36 37 29 25 20 14 13 15 19 23 21 26 29 30 31 31 26 23 21 19 17 14 10 9 6 5 5 5 5 6 6
50 47 41 40 38 38 33 31 31 36 44 42 48 44 37 36 29 22 19 13 16 20 23 24 32 36 34 33 31 29 26 23 20 17 14 12 9 9 8 6 3 1 1 1
54 50 47 45 41 40 33 29 31 35 40 48 58 49 47 43 34 28 23 15 15 18 24 29 35 35 36 34 30 26 24 22 19 16 14 14 14 14 13 11 9 7 5 4
60 56 53 51 47 46 36 31 26 31 35 46 44 51 53 45 37 30 24 18 15 21 24 32 34 34 36 31 29 26 22 19 17 15 15 16 17 16 15 13 13 12 10 8
64 58 58 54 52 47 40 32 37 27 28 32 43 51 54 44 41 36 31 26 22 23 31 32 34 35 38 35 31 29 27 24 23 20 20 19 18 18 17 16 14 12 13 14
65 66 62 61 59 48 39 41 28 20 24 26 37 47 52 51 47 42 39 33 30 27 32 34 35 36 37 35 34 33 31 30 26 24 21 22 21 17 15 14 12 15 16 19
70 70 66 66 56 50 47 40 36 35 28 30 33 39 46 51 52 47 46 42 37 32 34 37 35 35 35 32 32 33 34 34 33 28 26 25 23 20 19 19 19 19 21 23
78 76 70 66 65 58 55 52 49 39 36 37 33 27 37 45 54 52 48 46 41 37 35 37 34 30 29 35 37 37 36 36 35 32 31 30 30 28 26 26 27 28 28 28
79 76 77 73 70 63 55 53 47 46 42 34 32 29 26 26 40 54 53 51 47 44 40 38 38 37 35 33 33 36 37 38 35 34 34 35 35 34 31 32 34 32 32 32
83 85 79 73 72 68 61 56 50 49 49 42 38 39 36 30 30 43 56 56 54 50 47 45 42 42 43 41 40 40 39 39 38 39 39 40 40 38 37 37 40 38 37 37
89 86 83 83 76 69 62 60 55 52 53 51 46 46 45 38 35 34 43 55 57 56 55 51 49 47 43 43 43 42 42 42 41 42 43 45 43 44 43 42 41 41 40 39
93 90 86 82 79 76 69 63 59 58 55 54 53 52 51 44 39 40 39 45 56 60 58 57 54 52 50 48 46 45 44 44 44 44 45 44 44 45 44 44 43 45 44 44
98 93 88 87 87 82 75 65 64 63 60 56 52 54 55 48 40 40 41 39 42 50 58 60 59 57 55 54 53 52 49 46 46 45 46 47 47 49 48 48 50 51 51 51
101 97 95 93 88 86 76 76 71 70 68 63 55 52 54 49 39 34 37 40 40 40 41 49 56 53 56 57 54 53 51 50 50 49 50 52 54 53 52 53 55 56 56 57
101 102 99 95 87 88 85 81 76 76 72 66 59 53 52 51 46 39 38 42 43 41 38 36 37 38 42 47 53 58 59 59 58 57 57 56 57 58 56 53 55 56 57 54
99 104 101 98 91 90 89 86 81 78 77 74 65 62 58 56 53 53 51 42 37 39 39 37 38 38 38 37 37 38 42 44 45 46 46 43 42 40 42 41 40 38 39 41
96 100 102 101 97 93 92 88 84 85 87 81 72 66 62 59 56 56 53 51 45 41 43 43 41 41 41 40 41 41 39 41 39 37 36 37 38 38 37 38 38 39 40 44
91 96 99 103 100 96 92 89 89 91 86 83 77 70 66 64 59 61 60 58 53 49 49 47 46 46 47 45 43 42 42 42 40 39 40 40 41 41 40 38 39 43 40 44
92 92 96 98 98 96 94 94 92 91 89 88 84 77 72 68 66 64 64 64 60 56 53 52 52 52 52 51 48 48 48 48 48 48 48 47 48 47 46 46 47 45 48 52
96 89 89 91 93 94 93 92 95 95 92 91 91 85 80 74 69 67 67 67 66 61 60 60 57 56 56 56 57 57 57 57 57 56 54 55 54 53 52 52 51 50 51 56
98 91 86 85 89 94 99 99 100 100 97 93 91 90 85 81 75 73 70 70 70 69 66 63 62 63 62 61 61 60 61 62 63 64 64 63 61 59 58 57 55 53 54 58
93 97 88 82 88 90 95 104 99 96 97 96 93 93 91 88 84 81 77 75 75 74 73 71 68 66 66 67 68 68 67 67 68 68 68 66 65 67 66 63 61 58 59 60
Wind_Direction
256 250 247 248 249 250 252 255 255 253 251 254 254 249 259 257 249 277 199 195 207 191 190 195 208 204 174 188 182 178 176 162 158 151 137 128 123 125 119 115 114 104 97 83
249 248 244 243 247 248 245 247 246 245 245 247 251 253 255 258 255 258 239 219 203 197 191 194 204 202 177 188 184 180 179 168 163 156 142 136 128 122 118 113 107 100 97 82
250 248 243 243 245 246 242 240 241 239 238 242 243 247 252 253 249 256 249 226 202 202 197 193 205 191 179 189 186 181 179 172 169 160 151 146 143 138 124 119 111 102 94 83
252 247 246 246 246 245 245 241 244 243 240 240 238 242 249 249 246 247 248 232 219 216 210 190 205 197 177 188 185 188 182 177 170 162 161 151 150 150 134 127 114 103 99 88
242 246 244 248 248 251 248 244 238 239 239 238 239 237 238 240 240 238 239 233 225 218 217 186 194 183 180 188 188 184 185 184 179 170 171 175 168 166 156 147 128 117 103 97
243 246 244 243 243 242 246 241 234 231 232 231 233 230 231 234 233 232 235 229 230 221 217 184 185 179 184 189 194 189 188 191 195 193 193 203 215 217 218 222 226 178 64 43
236 237 236 237 237 241 238 237 233 232 230 220 224 221 226 228 222 226 224 221 227 219 220 185 184 183 186 191 196 196 197 202 204 208 216 229 236 240 241 240 249 255 255 263
235 232 232 233 229 233 231 225 229 231 233 234 236 226 227 223 219 225 226 222 222 209 216 187 184 187 191 196 200 203 204 210 215 224 234 234 236 238 242 252 256 261 267 269
230 230 233 234 231 232 231 219 224 232 235 235 229 228 231 221 220 221 226 220 220 215 201 195 188 191 192 199 205 209 214 214 217 227 237 239 235 239 242 237 251 270 279 279
228 230 227 229 230 226 228 224 213 222 219 221 226 222 224 218 218 218 223 223 218 216 203 202 198 196 202 202 205 211 216 221 224 229 236 241 243 239 242 251 260 269 275 279
227 227 226 229 233 226 223 219 210 207 211 217 229 227 223 219 214 214 218 218 219 212 211 206 208 206 207 210 212 215 218 218 222 226 231 232 231 240 254 267 274 280 281 283
225 222 223 225 227 225 221 219 214 204 206 216 224 228 227 222 215 215 216 221 222 217 214 214 214 217 217 217 217 218 219 224 224 226 228 225 231 240 251 264 271 277 287 286
224 222 223 222 225 226 222 220 211 204 206 219 226 221 210 208 215 217 217 221 218 218 216 216 219 219 218 223 230 230 230 231 229 231 234 236 240 248 258 267 275 281 285 283
220 221 221 220 220 219 220 217 209 205 202 208 219 225 222 208 206 210 216 219 219 219 218 215 217 218 221 221 226 232 234 236 234 235 236 240 245 253 262 266 273 278 279 278
222 220 220 220 219 221 219 215 207 205 201 205 209 225 229 221 201 204 212 216 222 221 218 218 222 223 226 231 233 233 235 235 237 241 243 248 253 257 261 266 269 273 276 279
223 222 217 220 218 217 216 214 207 205 203 203 209 219 230 226 212 209 211 213 214 219 224 224 224 227 228 232 236 239 240 238 240 244 248 252 256 260 263 266 269 273 277 282
222 223 219 216 217 216 215 214 208 202 201 198 205 212 221 228 221 213 218 222 219 218 221 225 230 231 231 234 237 240 243 246 248 250 255 259 261 265 268 272 275 278 281 285
221 221 219 218 216 216 212 212 207 201 201 201 204 213 220 226 223 216 216 220 223 219 219 224 226 230 238 240 243 245 248 249 250 254 256 259 263 266 271 274 276 277 279 281
218 219 220 220 215 215 213 212 208 202 204 205 209 212 217 222 224 219 212 218 218 223 219 214 214 217 224 232 239 242 246 249 252 255 257 260 265 269 272 273 274 277 278 278
219 217 219 219 217 216 214 211 210 204 208 209 210 213 213 217 224 229 226 218 227 216 220 223 222 220 217 220 226 234 242 248 251 255 262 263 259 261 265 270 274 276 280 282
221 216 216 218 217 217 216 210 210 209 209 210 209 214 214 219 221 232 231 228 226 227 224 223 225 230 232 234 233 234 237 240 245 251 255 259 263 267 271 275 280 282 283 285
221 218 215 216 216 215 217 214 211 212 210 211 210 213 217 220 220 228 236 235 234 229 228 231 232 233 239 243 245 246 245 249 251 254 256 260 264 266 270 274 280 282 279 285
220 220 217 215 215 214 215 215 213 214 213 212 213 214 215 220 224 224 232 239 237 236 234 232 231 235 240 243 245 248 250 252 253 253 254 257 260 266 271 274 277 281 280 284
220 220 219 218 215 216 216 216 217 215 214 214 214 216 217 219 223 228 229 235 240 240 240 239 237 237 239 241 246 248 248 251 253 255 258 260 260 264 269 273 277 279 282 285
217 219 220 218 217 216 216 216 217 215 215 214 215 217 219 221 223 226 230 232 236 241 242 243 243 242 242 245 246 247 251 254 256 258 259 260 262 265 269 272 275 279 282 283
215 217 218 218 217 217 215 217 216 217 216 217 215 217 220 223 227 229 229 231 236 237 241 246 247 245 245 245 246 249 250 252 253 255 258 260 263 266 269 272 275 280 280 283